Temperature
9 9 9 9 9 9 9 9 9 10 10 10 10 10 10 10 10 10 10 10 10 10 10 10 10 10 10 10 11 11 11 11 11 11 11 11 11 11 11 11 10 10 10
8 8 8 9 9 9 9 9 9 9 9 9 9 9 9 10 10 10 10 10 10 10 10 10 9 10 9 10 10 10 10 10 10 10 10 10 10 10 10 10 10 10 10
8 8 8 8 8 8 8 8 8 9 9 9 9 9 9 9 9 9 9 9 9 9 9 9 9 9 9 9 9 9 9 10 10 10 10 10 10 10 10 10 10 10 10
7 7 7 7 7 7 8 8 8 8 8 8 8 8 8 8 9 9 9 9 9 9 9 9 9 9 9 9 9 9 9 9 9 9 9 10 10 10 10 10 10 10 9
6 6 6 6 7 7 7 7 7 7 7 8 8 8 8 8 8 8 8 8 8 8 8 8 8 8 9 9 8 8 9 9 9 9 9 9 9 9 9 9 9 9 9
5 6 6 6 6 6 6 6 6 6 6 7 7 7 7 7 7 7 7 7 7 7 8 8 8 8 8 8 8 8 8 8 8 8 9 9 9 9 9 9 9 9 9
5 5 5 5 5 5 5 5 6 6 6 6 6 6 6 6 6 6 6 7 7 7 7 7 7 7 8 8 8 8 8 8 8 8 8 8 8 8 8 9 9 9 9
4 4 4 4 4 4 4 5 5 5 5 5 5 5 5 5 5 6 6 6 6 6 6 6 6 7 7 7 7 7 7 7 7 8 8 8 8 8 8 8 8 8 8
3 3 3 3 4 4 4 4 4 4 4 4 4 4 3 3 4 5 5 5 5 6 6 6 6 6 6 6 7 7 7 7 7 7 7 7 8 8 8 8 8 8 8
2 2 2 2 3 3 3 3 3 3 3 3 3 3 3 3 2 2 4 4 5 5 5 5 5 6 6 6 6 6 6 6 6 7 7 7 7 7 7 8 8 8 8
1 1 2 2 2 2 2 2 2 2 2 2 2 2 2 2 2 2 2 3 4 4 4 5 5 5 5 5 5 5 6 6 6 6 6 6 7 7 7 7 7 7 7
1 1 1 1 1 1 1 1 1 1 1 1 1 1 1 1 1 1 1 1 2 3 4 4 4 4 4 5 5 5 5 5 5 5 6 6 6 6 6 6 7 7 7
-0 -0 -0 -0 -0 -0 -0 -0 0 0 0 0 0 0 0 0 0 0 0 0 1 1 2 3 3 3 4 4 4 4 4 5 5 5 5 5 5 6 6 6 6 6 6
-1 -1 -1 -1 -1 -1 -1 -1 -1 -1 -1 -1 -1 -0 -0 -0 -0 -0 -0 -0 -0 -0 1 2 2 3 3 3 3 4 4 4 4 4 4 4 5 5 5 6 6 6 6
-2 -2 -2 -2 -2 -2 -2 -2 -2 -2 -1 -1 -1 -1 -1 -1 -1 -1 -1 -1 -1 -1 -1 0 1 2 2 2 3 3 3 3 4 4 4 4 4 4 5 5 5 5 5
-3 -2 -2 -2 -2 -2 -2 -2 -2 -2 -2 -2 -2 -2 -2 -2 -1 -1 -1 -1 -2 -2 -2 -1 0 1 1 1 2 2 3 3 3 3 3 3 4 4 4 4 4 4 4
-3 -3 -3 -3 -3 -3 -3 -3 -3 -3 -3 -3 -3 -2 -2 -2 -2 -2 -2 -2 -2 -2 -2 -1 -1 -0 0 1 1 1 2 2 2 3 3 3 3 3 3 4 4 4 4
-4 -4 -4 -4 -4 -4 -4 -4 -4 -4 -4 -3 -3 -3 -3 -3 -3 -3 -3 -2 -3 -3 -3 -2 -1 -1 -0 -0 0 0 1 1 2 2 2 2 2 3 3 3 3 3 3
-5 -5 -5 -5 -5 -5 -4 -4 -4 -4 -4 -4 -4 -4 -4 -4 -3 -3 -3 -3 -3 -3 -3 -3 -2 -2 -2 -1 -1 -1 -0 0 1 1 1 2 2 2 2 2 2 2 3
-6 -6 -6 -5 -5 -5 -5 -5 -5 -5 -5 -5 -5 -5 -4 -4 -4 -4 -4 -4 -4 -4 -4 -3 -3 -3 -3 -2 -2 -2 -1 -1 0 1 1 1 1 2 2 2 2 2 2
-7 -6 -6 -6 -6 -6 -6 -6 -6 -6 -6 -6 -5 -5 -5 -5 -5 -5 -5 -4 -4 -4 -4 -4 -4 -4 -3 -3 -3 -3 -2 -2 -1 -0 0 1 1 1 1 1 1 1 1
-7 -7 -7 -7 -7 -6 -6 -6 -7 -6 -6 -6 -6 -6 -6 -5 -5 -5 -5 -5 -5 -5 -5 -5 -5 -5 -4 -4 -4 -4 -3 -3 -2 -1 -1 -0 0 0 1 1 1 1 1
-8 -8 -8 -7 -7 -7 -7 -7 -7 -7 -7 -7 -7 -6 -6 -6 -6 -6 -6 -6 -6 -6 -6 -6 -5 -5 -5 -5 -4 -4 -4 -4 -3 -3 -2 -1 -1 -0 0 0 0 0 0
-9 -9 -8 -8 -8 -8 -8 -8 -8 -8 -8 -7 -7 -7 -7 -6 -6 -7 -6 -6 -6 -6 -6 -6 -6 -6 -5 -5 -5 -5 -5 -5 -4 -3 -3 -3 -1 -1 -1 -1 -0 -0 -0
-9 -9 -9 -9 -9 -8 -8 -8 -9 -8 -8 -8 -8 -7 -7 -7 -7 -7 -7 -7 -7 -7 -6 -6 -6 -6 -6 -5 -5 -6 -5 -6 -5 -4 -4 -4 -3 -2 -2 -1 -1 -1 -1
-10 -10 -9 -9 -9 -9 -9 -9 -9 -9 -9 -9 -8 -8 -8 -8 -8 -8 -8 -7 -7 -7 -7 -7 -7 -6 -6 -6 -6 -6 -6 -6 -6 -6 -5 -4 -4 -4 -3 -2 -2 -2 -2
Wind_Speed
4 4 4 5 5 6 6 5 5 5 6 6 6 5 5 4 4 4 4 4 3 3 2 2 2 3 3 4 4 4 4 4 4 5 5 6 6 5 5 6 6 6 6
4 3 4 4 5 5 5 4 4 4 4 4 4 5 4 3 4 4 4 4 4 3 2 1 1 2 2 3 3 3 3 3 4 4 5 5 5 5 5 4 5 6 6
4 3 3 3 4 4 4 4 4 4 3 3 3 4 3 3 3 3 3 4 4 4 4 3 2 2 1 2 2 2 3 3 3 4 5 5 5 5 5 4 4 5 5
5 4 3 3 3 4 4 3 3 2 3 3 3 3 3 2 2 2 3 3 3 4 4 4 3 3 2 1 1 2 2 2 3 4 4 5 5 5 5 5 5 5 5
4 4 3 3 3 4 4 3 3 2 2 3 2 2 2 2 2 2 3 3 3 3 3 3 4 3 3 2 2 0 1 2 2 3 4 5 6 5 6 6 6 5 5
3 3 3 3 3 3 2 2 2 2 1 2 2 3 3 2 2 2 2 3 3 3 3 3 3 3 3 2 2 2 1 0 2 2 3 5 6 6 6 7 7 6 6
3 3 3 3 3 2 1 2 1 2 2 2 2 2 3 3 2 2 3 2 2 3 2 3 3 3 3 3 2 2 2 2 2 3 3 4 6 7 6 7 9 8 7
3 3 3 2 2 2 2 2 2 1 1 2 1 1 2 2 3 2 2 1 2 3 3 3 2 2 2 2 3 3 3 3 3 3 3 4 6 7 7 7 8 10 9
2 3 3 2 2 1 1 1 1 1 0 1 1 1 1 2 2 3 2 1 2 1 2 3 3 3 3 2 2 3 4 4 5 4 4 5 5 7 7 8 8 9 10
2 2 2 2 2 1 1 2 1 1 1 1 1 1 0 1 1 2 3 2 2 2 2 3 3 4 4 3 3 4 4 5 6 6 6 6 6 6 7 7 8 9 9
3 2 2 2 2 2 2 2 1 1 1 1 1 1 1 1 1 1 3 3 4 3 3 3 3 4 4 4 4 5 5 5 6 7 7 7 7 7 7 7 7 8 8
3 4 3 2 2 2 2 3 2 1 1 1 1 1 1 1 2 2 3 4 4 4 4 3 3 3 4 5 5 6 6 6 7 8 8 8 8 8 8 8 7 8 8
2 3 4 3 3 3 3 2 2 2 2 2 2 2 2 3 2 2 3 3 4 4 3 2 2 3 4 5 6 7 7 7 8 9 9 9 8 8 8 8 9 8 8
3 4 3 3 3 3 3 3 2 2 2 2 3 2 2 3 2 2 3 3 4 4 3 3 3 3 4 6 8 8 8 8 9 10 10 10 9 9 8 9 9 9 9
3 3 3 3 4 4 3 3 2 3 2 3 3 3 3 3 3 3 3 3 3 4 5 4 3 2 6 7 8 8 9 10 11 11 11 11 10 10 10 9 10 10 9
3 3 3 3 4 4 4 3 3 3 3 3 3 3 3 3 3 3 3 4 4 5 5 4 4 5 6 8 10 10 10 11 12 12 12 11 11 12 11 10 10 10 10
4 4 4 4 4 4 4 3 4 4 4 4 4 4 5 4 4 3 4 4 4 4 7 6 5 5 5 5 8 9 10 10 10 12 13 12 12 13 12 11 10 10 10
4 4 4 4 4 4 4 4 5 5 5 5 5 5 6 5 5 4 4 5 5 5 6 8 6 5 6 6 6 6 8 9 10 12 12 13 13 13 12 12 11 11 11
4 4 4 4 4 5 5 5 5 5 6 6 6 6 6 6 6 6 6 6 5 6 5 6 7 5 5 5 5 6 7 7 9 10 11 12 13 12 12 12 12 12 11
3 4 5 5 5 6 6 6 6 6 6 6 7 7 7 7 8 7 7 7 6 6 6 6 6 6 5 5 4 5 6 5 6 7 9 11 11 12 12 12 12 12 12
4 4 5 5 6 6 6 6 7 7 7 7 7 7 8 9 11 9 8 7 7 6 6 6 7 6 6 4 4 4 6 5 6 5 5 7 7 8 9 11 12 13 12
4 4 5 6 6 6 10 12 9 7 7 7 8 7 8 9 11 13 13 12 10 9 8 7 7 8 8 7 5 6 5 5 5 3 4 6 5 6 7 9 12 13 13
4 5 5 6 7 8 12 13 13 8 7 7 7 7 7 8 9 7 10 12 12 14 13 9 9 9 8 8 7 7 7 7 7 5 5 7 5 6 7 10 12 13 13
5 5 6 7 7 9 12 13 13 8 7 7 8 8 8 8 8 9 8 8 9 9 11 9 9 10 10 10 9 9 8 7 6 6 5 6 5 5 7 8 12 13 13
5 6 6 6 7 8 12 13 12 6 7 8 9 9 9 8 12 13 9 8 9 9 12 14 15 13 14 14 11 6 5 6 7 6 4 4 4 4 5 6 9 12 12
5 6 7 6 7 8 12 13 12 6 7 7 7 8 12 12 13 14 9 8 10 8 7 8 9 10 10 11 11 8 6 7 6 5 3 3 4 3 4 4 5 7 9
Wind_Direction
54 52 47 45 36 32 29 24 21 20 21 25 31 35 29 29 24 25 16 14 19 27 38 70 112 140 139 134 132 127 131 143 149 149 147 144 136 126 125 133 134 129 129
59 57 47 40 33 29 25 21 16 14 13 19 19 19 17 24 22 23 21 17 16 24 39 64 101 127 147 139 136 144 145 148 151 162 159 161 156 149 137 141 147 143 136
54 57 49 37 23 23 26 26 25 23 17 15 6 359 7 13 17 21 25 27 28 32 38 44 68 95 103 131 144 158 167 167 172 167 169 171 171 166 163 160 157 154 151
47 49 42 29 19 27 28 24 21 20 11 6 348 338 345 356 12 29 32 41 45 44 37 34 37 52 56 67 163 167 152 175 190 192 183 175 171 177 180 178 175 173 171
45 46 32 22 26 30 25 17 16 23 13 1 345 340 344 354 7 41 44 46 56 60 54 31 25 24 21 24 37 100 166 182 191 196 198 195 189 190 198 195 191 187 187
37 44 35 22 30 31 19 12 13 16 13 357 351 352 338 343 30 36 38 42 52 55 58 45 28 13 3 356 2 1 351 298 225 207 206 205 201 199 206 206 202 199 196
36 41 28 20 26 25 11 10 23 17 20 21 38 7 349 355 24 14 29 38 36 26 37 34 24 21 358 351 343 324 322 298 271 252 233 222 217 211 211 213 213 210 207
34 32 25 15 18 8 21 22 34 27 19 32 54 49 343 337 346 337 350 5 6 16 6 358 355 354 343 340 331 333 312 300 296 265 251 245 231 224 222 223 219 216 212
27 25 18 10 11 18 351 347 13 62 319 328 43 102 143 248 304 312 326 333 343 347 342 338 333 308 292 297 303 313 309 301 289 286 268 262 251 234 232 233 226 222 220
3 7 5 4 358 355 313 310 336 289 216 274 306 336 237 202 229 300 313 320 325 312 303 315 309 300 279 269 281 290 294 299 290 281 272 266 268 254 241 235 232 229 228
336 345 346 350 351 349 333 305 299 285 235 250 259 280 285 307 250 231 280 308 318 297 289 288 282 277 277 268 266 276 283 287 290 285 277 265 265 267 257 250 243 237 234
327 337 338 338 332 333 327 321 294 258 243 247 265 270 253 236 245 248 259 285 295 296 301 289 277 267 276 274 268 277 277 276 281 282 277 271 266 271 261 260 257 250 242
313 318 321 317 315 313 315 317 318 293 269 248 244 260 267 254 253 261 264 278 286 297 294 290 274 279 297 305 291 284 273 274 275 277 276 273 267 272 263 263 258 257 253
285 300 305 299 297 299 304 311 298 284 282 266 264 259 268 278 265 256 258 267 285 286 281 270 291 288 305 311 313 308 286 275 273 273 274 273 268 272 263 262 262 260 257
297 306 306 306 299 292 290 291 286 279 266 262 264 259 259 270 274 269 263 247 242 266 271 271 278 292 310 309 308 306 301 284 269 268 268 269 267 268 260 261 259 257 257
302 303 305 300 299 294 286 282 282 278 272 267 266 266 263 261 265 264 260 259 250 250 261 260 265 288 300 302 302 302 296 299 281 268 262 261 262 260 252 255 257 257 254
295 290 289 291 289 291 291 282 275 273 271 273 268 263 264 257 257 257 255 256 256 251 260 273 274 283 279 288 299 294 292 289 284 273 265 260 261 256 249 251 253 255 255
290 287 288 288 288 290 287 280 275 277 268 268 267 260 260 262 256 253 251 253 254 252 255 270 275 276 272 274 280 285 292 287 284 276 272 266 263 256 250 250 250 251 253
292 294 289 283 285 286 283 277 272 270 265 262 261 260 258 253 257 255 252 251 252 258 253 260 269 270 273 274 279 285 287 288 286 277 274 268 262 258 255 253 251 250 251
283 284 286 281 281 281 279 276 273 269 265 263 260 257 257 254 253 253 253 248 248 253 254 256 263 268 271 269 264 276 284 280 286 286 276 270 264 261 258 255 254 252 249
283 287 288 288 286 279 271 269 267 265 264 267 265 258 255 258 260 258 256 247 241 243 246 253 260 264 266 269 264 271 276 286 283 268 269 268 264 257 255 253 250 248 249
282 285 284 286 285 283 281 283 280 268 265 265 266 264 261 263 267 269 269 268 256 246 243 247 256 258 261 258 261 263 272 283 282 260 268 268 257 254 259 254 253 252 252
278 280 281 280 280 280 284 285 285 284 272 268 262 260 264 264 269 264 268 270 268 264 259 254 254 253 258 253 250 256 254 260 267 271 281 269 249 252 262 261 260 258 256
269 272 277 277 278 280 286 287 289 288 278 269 260 255 256 257 258 260 257 259 258 260 261 259 251 249 252 252 244 246 252 265 270 260 252 261 253 254 270 264 256 257 258
272 272 272 272 275 281 287 287 289 280 273 271 264 256 254 253 260 264 261 259 264 263 267 268 268 269 270 267 262 252 249 257 271 268 240 245 258 266 265 259 257 254 256
272 277 279 276 274 277 284 287 290 279 274 274 267 258 259 259 261 262 254 251 259 262 262 267 268 273 274 268 262 250 243 250 265 267 237 238 257 275 272 257 247 253 254
Height
1532 1532 1532 1532 1532 1532 1532 1532 1532 1532 1532 1532 1532 1532 1532 1533 1533 1534 1534 1535 1535 1536 1536 1537 1538 1539 1539 1540 1540 1541 1542 1542 1543 1544 1545 1546 1546 1547 1548 1548 1549 1549 1550
1530 1530 1530 1530 1530 1530 1530 1530 1530 1530 1530 1530 1530 1530 1530 1530 1531 1531 1532 1533 1534 1534 1534 1535 1536 1537 1537 1538 1539 1540 1540 1541 1541 1542 1543 1544 1545 1546 1547 1548 1548 1549 1549
1529 1528 1528 1528 1528 1528 1528 1528 1528 1528 1528 1528 1528 1528 1528 1529 1529 1529 1530 1531 1531 1532 1532 1533 1534 1535 1535 1536 1537 1538 1538 1539 1540 1541 1542 1542 1543 1544 1545 1546 1547 1548 1548
1526 1526 1527 1526 1526 1526 1526 1526 1526 1526 1526 1526 1526 1526 1526 1526 1527 1527 1527 1528 1529 1530 1530 1531 1532 1532 1533 1534 1535 1535 1536 1537 1538 1539 1540 1540 1541 1543 1544 1545 1545 1546 1547
1524 1524 1524 1524 1524 1524 1524 1524 1523 1523 1523 1523 1523 1523 1524 1523 1524 1525 1525 1526 1527 1527 1528 1528 1529 1530 1531 1531 1532 1533 1534 1534 1535 1536 1537 1538 1539 1540 1542 1543 1543 1544 1545
1522 1522 1522 1521 1522 1522 1521 1521 1521 1521 1521 1520 1520 1521 1521 1521 1522 1522 1523 1523 1524 1525 1525 1526 1527 1527 1528 1529 1530 1530 1531 1532 1533 1534 1535 1536 1537 1538 1539 1540 1541 1542 1543
1519 1519 1519 1519 1519 1519 1518 1518 1518 1518 1518 1518 1518 1518 1519 1519 1519 1520 1520 1521 1521 1522 1523 1523 1524 1524 1525 1526 1526 1527 1528 1529 1530 1531 1532 1533 1534 1535 1536 1537 1538 1539 1540
1517 1516 1516 1516 1516 1516 1516 1515 1515 1515 1516 1516 1516 1515 1516 1517 1516 1517 1517 1518 1518 1519 1519 1520 1521 1521 1522 1522 1523 1524 1525 1526 1527 1528 1529 1530 1531 1531 1533 1534 1535 1536 1537
1514 1514 1513 1513 1513 1513 1513 1513 1513 1513 1513 1514 1514 1515 1514 1513 1513 1513 1513 1514 1515 1515 1516 1516 1517 1518 1518 1519 1519 1520 1521 1522 1523 1524 1525 1526 1527 1528 1529 1531 1532 1533 1534
1511 1511 1511 1510 1510 1510 1509 1509 1510 1510 1510 1510 1511 1512 1513 1512 1512 1509 1509 1510 1511 1511 1512 1513 1513 1513 1514 1515 1516 1516 1517 1518 1519 1520 1521 1522 1523 1524 1526 1526 1528 1529 1530
1508 1508 1508 1507 1507 1506 1506 1506 1506 1506 1506 1507 1507 1508 1509 1509 1509 1508 1506 1506 1507 1507 1507 1508 1509 1510 1510 1511 1512 1512 1513 1514 1515 1516 1517 1518 1519 1520 1521 1522 1523 1524 1526
1505 1504 1504 1504 1503 1503 1502 1502 1502 1502 1503 1503 1504 1504 1505 1505 1505 1505 1504 1502 1502 1503 1503 1504 1505 1505 1506 1506 1507 1508 1509 1509 1510 1511 1512 1513 1514 1515 1516 1517 1518 1520 1521
1501 1500 1500 1500 1500 1499 1499 1498 1498 1498 1499 1499 1500 1500 1501 1501 1502 1502 1501 1500 1499 1498 1499 1500 1500 1501 1501 1502 1502 1503 1504 1504 1505 1506 1507 1508 1508 1509 1510 1512 1513 1514 1516
1497 1497 1497 1497 1496 1496 1496 1495 1494 1494 1495 1495 1495 1496 1496 1497 1498 1497 1498 1497 1496 1495 1494 1494 1495 1496 1496 1497 1497 1498 1499 1500 1500 1501 1502 1502 1503 1504 1505 1506 1507 1509 1510
1493 1493 1493 1493 1492 1492 1492 1491 1491 1491 1491 1491 1491 1491 1492 1492 1493 1493 1493 1494 1494 1492 1489 1489 1491 1491 1491 1492 1492 1493 1493 1494 1495 1495 1496 1497 1498 1499 1500 1501 1502 1503 1505
1489 1489 1489 1488 1488 1488 1487 1487 1487 1487 1486 1486 1486 1486 1487 1487 1488 1488 1488 1489 1489 1488 1486 1484 1485 1486 1486 1486 1487 1487 1488 1488 1489 1490 1491 1491 1492 1493 1494 1495 1496 1497 1499
1485 1484 1484 1484 1483 1483 1483 1483 1482 1482 1482 1481 1481 1481 1482 1482 1482 1483 1483 1483 1483 1483 1481 1480 1481 1481 1480 1481 1481 1481 1482 1482 1483 1484 1485 1486 1487 1487 1488 1490 1490 1492 1493
1480 1480 1480 1479 1479 1478 1478 1478 1477 1477 1477 1476 1476 1476 1476 1477 1477 1477 1477 1477 1477 1477 1477 1474 1474 1475 1475 1475 1475 1475 1476 1476 1476 1477 1478 1479 1481 1481 1483 1484 1485 1486 1487
1475 1475 1475 1475 1474 1473 1473 1473 1472 1472 1471 1471 1471 1471 1471 1471 1471 1471 1471 1471 1472 1472 1471 1470 1469 1469 1469 1469 1469 1469 1469 1469 1470 1471 1472 1473 1474 1475 1476 1478 1478 1479 1480
1470 1470 1470 1470 1469 1468 1468 1468 1467 1466 1466 1465 1465 1465 1465 1465 1465 1465 1465 1465 1466 1466 1466 1465 1464 1464 1463 1463 1463 1463 1462 1463 1463 1464 1465 1466 1467 1468 1470 1471 1472 1473 1474
1466 1465 1465 1465 1464 1463 1463 1462 1461 1461 1460 1460 1459 1459 1459 1459 1459 1459 1460 1459 1460 1459 1459 1459 1458 1458 1457 1457 1457 1457 1457 1456 1456 1458 1458 1459 1460 1461 1462 1464 1465 1466 1467
1461 1461 1460 1459 1459 1458 1457 1457 1456 1455 1454 1453 1453 1452 1452 1452 1452 1453 1453 1453 1454 1454 1453 1453 1452 1451 1451 1451 1451 1452 1451 1450 1450 1452 1452 1452 1454 1454 1455 1456 1457 1458 1460
1456 1456 1455 1454 1453 1452 1452 1451 1450 1450 1448 1447 1446 1446 1446 1446 1446 1446 1446 1446 1447 1447 1448 1447 1445 1444 1445 1445 1445 1445 1445 1445 1443 1444 1445 1444 1446 1446 1448 1448 1450 1451 1452
1451 1450 1450 1449 1448 1446 1446 1445 1444 1443 1441 1440 1440 1439 1439 1439 1439 1440 1439 1439 1439 1439 1440 1440 1439 1438 1439 1438 1438 1438 1438 1438 1438 1438 1439 1437 1437 1439 1440 1441 1442 1443 1444
1446 1445 1444 1443 1442 1440 1440 1439 1438 1436 1435 1434 1433 1433 1433 1432 1433 1434 1434 1433 1432 1432 1433 1433 1433 1432 1432 1432 1432 1432 1432 1432 1430 1430 1432 1432 1430 1431 1432 1433 1434 1436 1436
1441 1440 1439 1438 1437 1435 1434 1433 1432 1431 1429 1427 1427 1426 1426 1426 1427 1427 1427 1426 1425 1425 1426 1425 1425 1425 1425 1425 1425 1426 1426 1426 1425 1424 1425 1426 1424 1425 1424 1424 1426 1428 1429